KB0OJV Weather Reports


time (UTC)temp
F
wind
direction
speed
knots
gust
knots
rain 1hr
in
rain 24hr
in
rain mn
in
humidity
%
barometer
mb
20260503005509 62 265 8.7 16.5 0.00 0.00 0.00 40 1011.3
20260503005014 62 267 13.0 18.2 0.00 0.00 0.00 39 1011.4
20260503004520 62 270 9.6 18.2 0.00 0.00 0.00 38 1011.3
20260503004005 62 261 11.3 16.5 0.00 0.00 0.00 38 1011.2
20260503003506 62 260 9.6 14.8 0.00 0.00 0.00 38 1011.1
20260503003015 62 265 9.6 14.8 0.00 0.00 0.00 37 1011.0
20260503002506 62 244 3.5 7.8 0.00 0.00 0.00 38 1011.1
20260503002012 62 238 3.5 7.8 0.00 0.00 0.00 37 1011.1
20260503001522 63 254 4.3 7.0 0.00 0.00 0.00 38 1011.1
20260503001008 63 240 2.6 8.7 0.00 0.00 0.00 39 1011.1
20260503000509 63 216 4.3 8.7 0.00 0.00 0.00 40 1011.2
20260503000023 63 219 1.7 7.8 0.00 0.00 0.00 39 1011.2
20260502235505 63 130 2.6 7.8 0.00 0.00 0.00 40 1011.3
20260502234011 63 182 0.9 2.6 0.00 0.00 0.00 38 1011.3
20260502233508 63 153 1.7 3.5 0.00 0.00 0.00 37 1011.3
20260502233016 63 208 1.7 3.5 0.00 0.00 0.00 40 1011.5
20260502232508 63 118 1.7 6.1 0.00 0.00 0.00 40 1011.5
20260502232011 63 240 2.6 6.1 0.00 0.00 0.00 39 1011.7
20260502231517 63 240 4.3 7.8 0.00 0.00 0.00 37 1011.6
20260502231007 63 214 5.2 8.7 0.00 0.00 0.00 37 1011.7
20260502230508 63 250 4.3 10.4 0.00 0.00 0.00 37 1011.9
20260502225508 64 253 7.0 10.4 0.00 0.00 0.00 37 1011.8
20260502225009 64 263 5.2 10.4 0.00 0.00 0.00 36 1011.8
20260502224514 64 248 7.0 10.4 0.00 0.00 0.00 35 1011.8
20260502224010 64 252 3.5 11.3 0.00 0.00 0.00 34 1011.9
20260502223509 64 272 5.2 11.3 0.00 0.00 0.00 34 1012.0
20260502223024 65 238 7.0 11.3 0.00 0.00 0.00 35 1012.1
20260502222508 65 260 3.5 8.7 0.00 0.00 0.00 34 1012.1
20260502222007 65 267 6.1 11.3 0.00 0.00 0.00 34 1012.2
20260502221516 65 281 7.8 11.3 0.00 0.00 0.00 34 1012.2
20260502221008 65 253 6.1 11.3 0.00 0.00 0.00 34 1012.2
20260502220511 65 257 7.0 8.7 0.00 0.00 0.00 36 1012.4
20260502220025 66 225 4.3 9.6 0.00 0.00 0.00 36 1012.4
20260502215510 66 246 6.1 13.0 0.00 0.00 0.00 32 1012.4
20260502215009 66 245 7.0 13.0 0.00 0.00 0.00 35 1012.5
20260502214522 66 246 6.1 13.0 0.00 0.00 0.00 34 1012.5
20260502214010 66 217 8.7 13.0 0.00 0.00 0.00 32 1012.7
20260502213511 67 227 6.1 12.2 0.00 0.00 0.00 30 1012.8
20260502213028 67 240 8.7 13.9 0.00 0.00 0.00 31 1012.8
20260502212511 67 246 9.6 13.9 0.00 0.00 0.00 31 1012.9
20260502212008 67 266 7.0 13.0 0.00 0.00 0.00 33 1013.0
20260502211518 67 221 5.2 13.0 0.00 0.00 0.00 31 1013.1
20260502211008 67 263 7.0 13.0 0.00 0.00 0.00 31 1013.2
20260502210507 67 257 7.0 13.9 0.00 0.00 0.00 31 1013.4
20260502210022 67 252 9.6 13.9 0.00 0.00 0.00 33 1013.6
20260502205508 67 262 6.1 12.2 0.00 0.00 0.00 33 1013.6
20260502205008 66 254 8.7 14.8 0.00 0.00 0.00 34 1013.6
20260502204522 66 282 7.0 14.8 0.00 0.00 0.00 34 1013.6
20260502204008 66 259 7.8 14.8 0.00 0.00 0.00 32 1013.8
20260502203512 66 240 7.8 14.8 0.00 0.00 0.00 32 1013.9
20260502203024 66 241 8.7 13.0 0.00 0.00 0.00 30 1013.9
20260502202508 66 246 7.8 13.0 0.00 0.00 0.00 35 1014.0
20260502202010 65 282 8.7 13.0 0.00 0.00 0.00 34 1014.2
20260502201535 65 232 7.8 13.9 0.00 0.00 0.00 33 1014.2
20260502201010 65 276 9.6 15.6 0.00 0.00 0.00 34 1014.3
20260502200510 65 265 12.2 15.6 0.00 0.00 0.00 30 1014.4
20260502200017 65 263 7.8 14.8 0.00 0.00 0.00 34 1014.5
20260502195508 65 240 6.1 13.0 0.00 0.00 0.00 34 1014.7
20260502195009 65 240 8.7 13.9 0.00 0.00 0.00 31 1014.8
20260502194534 65 275 8.7 13.9 0.00 0.00 0.00 35 1015.0
20260502194008 64 257 7.8 11.3 0.00 0.00 0.00 32 1015.0
20260502193508 64 264 7.8 11.3 0.00 0.00 0.00 36 1015.2
20260502193020 63 250 6.1 13.0 0.00 0.00 0.00 33 1015.2
20260502192512 63 216 7.8 13.9 0.00 0.00 0.00 32 1015.3
20260502192013 63 253 8.7 13.9 0.00 0.00 0.00 33 1015.3
20260502191536 63 247 9.6 13.9 0.00 0.00 0.00 33 1015.4
20260502190510 62 265 8.7 12.2 0.00 0.00 0.00 35 1015.5
20260502190026 62 237 7.8 14.8 0.00 0.00 0.00 35 1015.7
20260502185509 62 293 7.8 14.8 0.00 0.00 0.00 34 1015.8
20260502185010 62 247 10.4 13.0 0.00 0.00 0.00 34 1015.8
20260502184530 62 209 5.2 12.2 0.00 0.00 0.00 35 1015.9
20260502184009 62 262 8.7 13.0 0.00 0.00 0.00 33 1016.2
20260502183514 61 219 7.8 13.0 0.00 0.00 0.00 35 1016.3
20260502183021 61 262 8.7 13.0 0.00 0.00 0.00 34 1016.3
20260502182511 61 221 6.1 13.9 0.00 0.00 0.00 34 1016.3
20260502181011 61 267 6.1 10.4 0.00 0.00 0.00 36 1016.6
20260502180509 61 285 6.1 12.2 0.00 0.00 0.00 32 1016.7
20260502164010 58 290 11.3 16.5 0.00 0.00 0.00 36 1017.9
20260502163507 58 303 7.0 13.9 0.00 0.00 0.00 37 1017.9
20260502163042 58 271 9.6 13.9 0.00 0.00 0.00 38 1018.0
20260502162509 58 282 6.1 17.4 0.00 0.00 0.00 38 1018.0
20260502162006 58 273 11.3 17.4 0.00 0.00 0.00 38 1018.1
20260502161521 57 249 9.6 13.9 0.00 0.00 0.00 37 1018.1
20260502161012 57 224 6.1 13.9 0.00 0.00 0.00 37 1018.1
20260502160513 56 275 7.0 13.9 0.00 0.00 0.00 37 1018.3
20260502152011 55 295 6.1 12.2 0.00 0.00 0.00 40 1018.5
20260502151521 55 257 7.0 12.2 0.00 0.00 0.00 40 1018.5
20260502151006 55 243 8.7 13.0 0.00 0.00 0.00 40 1018.6
20260502150511 55 262 9.6 13.0 0.00 0.00 0.00 42 1018.7
20260502130506 42 267 5.2 7.8 0.00 0.00 0.00 71 1019.2
20260502123511 36 272 2.6 6.1 0.00 0.00 0.00 80 1019.1
20260502123017 35 254 3.5 5.2 0.00 0.00 0.00 81 1019.1
20260502122508 35 262 2.6 3.5 0.00 0.00 0.00 81 1019.1
20260502122010 34 257 1.7 3.5 0.00 0.00 0.00 80 1019.1
20260502121527 33 259 1.7 3.5 0.00 0.00 0.00 81 1019.1
20260502121010 33 263 0.0 2.6 0.00 0.00 0.00 83 1019.1
20260502120508 32 254 0.0 2.6 0.00 0.00 0.00 83 1019.1
20260502115508 31 257 1.7 2.6 0.00 0.00 0.00 85 1019.0
20260502115009 31 292 0.0 1.7 0.00 0.00 0.00 86 1019.0
20260502114522 31 288 0.0 2.6 0.00 0.00 0.00 87 1018.9
20260502114010 31 277 0.9 2.6 0.00 0.00 0.00 87 1018.9
20260502113511 31 273 1.7 2.6 0.00 0.00 0.00 87 1018.9
20260502113024 30 286 0.9 3.5 0.00 0.00 0.00 87 1018.8
20260502112508 30 284 1.7 3.5 0.00 0.00 0.00 86 1018.8
20260502112006 30 288 1.7 3.5 0.00 0.00 0.00 85 1018.7
20260502111521 30 290 1.7 3.5 0.00 0.00 0.00 85 1018.7
20260502111008 31 284 1.7 3.5 0.00 0.00 0.00 85 1018.7
20260502110509 31 261 0.0 0.0 0.00 0.00 0.00 85 1018.6
20260502110019 31 261 0.0 0.0 0.00 0.00 0.00 85 1018.6
20260502105508 31 261 0.0 0.0 0.00 0.00 0.00 85 1018.6
20260502105007 31 261 0.0 0.0 0.00 0.00 0.00 85 1018.5
20260502104523 31 261 0.0 0.0 0.00 0.00 0.00 85 1018.5
20260502104010 31 261 0.0 0.0 0.00 0.00 0.00 85 1018.5
20260502103513 31 261 0.0 0.0 0.00 0.00 0.00 85 1018.5
20260502103026 31 261 0.0 0.0 0.00 0.00 0.00 85 1018.5
20260502102511 31 261 0.0 0.0 0.00 0.00 0.00 85 1018.5
20260502102011 31 261 0.0 0.0 0.00 0.00 0.00 85 1018.5
20260502101525 31 261 0.0 0.0 0.00 0.00 0.00 84 1018.5
20260502101010 31 261 0.0 0.0 0.00 0.00 0.00 84 1018.5
20260502100510 31 261 0.0 0.0 0.00 0.00 0.00 84 1018.5
20260502091522 32 261 0.0 1.7 0.00 0.00 0.00 86 1018.4
20260502091010 32 261 1.7 2.6 0.00 0.00 0.00 87 1018.4
20260502090509 32 265 1.7 3.5 0.00 0.00 0.00 87 1018.4
20260502071520 32 20 0.0 0.0 0.00 0.00 0.00 84 1018.7
20260502071012 32 20 0.0 0.0 0.00 0.00 0.00 84 1018.7
20260502070518 32 20 0.0 0.0 0.00 0.00 0.00 83 1018.7
20260502070036 32 20 0.0 0.0 0.00 0.00 0.00 83 1018.8
20260502065509 32 21 0.0 0.0 0.00 0.00 0.00 83 1018.8
20260502065010 32 20 0.0 0.0 0.00 0.00 0.00 83 1018.8
20260502064537 32 20 0.0 0.0 0.00 0.00 0.00 82 1018.9
20260502064006 33 20 0.0 0.0 0.00 0.00 0.00 82 1018.9
20260502063512 33 54 0.0 0.0 0.00 0.00 0.00 81 1018.9
20260502063018 33 54 0.0 0.0 0.00 0.00 0.00 81 1019.0
20260502062508 33 54 0.0 0.0 0.00 0.00 0.00 81 1018.9
20260502061522 33 54 0.0 0.0 0.00 0.00 0.00 80 1018.9
20260502060507 33 54 0.0 0.0 0.00 0.00 0.00 79 1018.9
20260502055509 33 54 0.0 0.0 0.00 0.00 0.00 79 1018.9
20260502055010 34 54 0.0 0.0 0.00 0.00 0.00 79 1018.9
20260502054520 34 54 0.0 0.0 0.00 0.00 0.00 78 1018.9
20260502054009 34 54 0.0 0.0 0.00 0.00 0.00 77 1018.9
20260502053508 34 54 0.0 0.0 0.00 0.00 0.00 76 1019.0
20260502053029 34 54 0.0 0.0 0.00 0.00 0.00 75 1018.9
20260502052507 34 54 0.0 0.0 0.00 0.00 0.00 76 1019.0
20260502052016 34 54 0.0 0.0 0.00 0.00 0.00 76 1018.9
20260502051519 34 54 0.0 0.0 0.00 0.00 0.00 75 1019.0
20260502051008 34 54 0.0 0.0 0.00 0.00 0.00 74 1019.0
20260502050511 34 54 0.0 0.0 0.00 0.00 0.00 75 1019.0
20260502050020 35 54 0.0 0.0 0.00 0.00 0.00 75 1019.1
20260502045510 35 54 0.0 0.0 0.00 0.00 0.00 73 1019.0
20260502045011 35 54 0.0 0.0 0.00 0.00 0.00 74 1019.0
20260502044522 35 54 0.0 0.0 0.00 0.00 0.00 73 1019.0
20260502044008 35 54 0.0 0.0 0.00 0.00 0.00 73 1019.0
20260502043508 35 54 0.0 0.0 0.00 0.00 0.00 73 1019.1
20260502043024 35 54 0.0 0.0 0.00 0.00 0.00 73 1019.1
20260502042511 36 54 0.0 0.0 0.00 0.00 0.00 72 1019.0
20260502042010 36 54 0.0 0.0 0.00 0.00 0.00 70 1018.9
20260502041525 36 54 0.0 0.0 0.00 0.00 0.00 70 1018.9
20260502041008 36 54 0.0 0.0 0.00 0.00 0.00 72 1018.9
20260502040510 36 54 0.0 0.0 0.00 0.00 0.00 70 1019.0
20260502040017 36 54 0.0 0.0 0.00 0.00 0.00 70 1019.1
20260502035510 37 54 0.0 0.0 0.00 0.00 0.00 69 1019.1
20260502035011 37 54 0.0 0.0 0.00 0.00 0.00 69 1019.2
20260502034535 37 54 0.0 0.0 0.00 0.00 0.00 67 1019.2
20260502034010 37 54 0.0 0.0 0.00 0.00 0.00 68 1019.2
20260502033510 38 54 0.0 0.0 0.00 0.00 0.00 67 1019.2
20260502033025 38 54 0.0 0.0 0.00 0.00 0.00 67 1019.2
20260502032509 38 54 0.0 0.0 0.00 0.00 0.00 66 1019.2
20260502032012 38 54 0.0 0.0 0.00 0.00 0.00 65 1019.2
20260502031527 38 54 0.0 0.0 0.00 0.00 0.00 65 1019.2
20260502031011 39 54 0.0 0.0 0.00 0.00 0.00 64 1019.1
20260502030510 39 54 0.0 0.0 0.00 0.00 0.00 64 1019.1
20260502030026 39 39 0.0 0.0 0.00 0.00 0.00 64 1019.1
20260502025508 39 39 0.0 0.0 0.00 0.00 0.00 63 1019.1
20260502025009 40 39 0.0 0.0 0.00 0.00 0.00 62 1019.1
20260502024520 40 39 0.0 0.0 0.00 0.00 0.00 63 1019.0
20260502024011 40 39 0.0 0.0 0.00 0.00 0.00 63 1019.0
20260502023511 41 39 0.0 0.0 0.00 0.00 0.00 61 1018.9
20260502023020 41 39 0.0 0.0 0.00 0.00 0.00 58 1018.9
20260502022509 42 350 0.0 0.0 0.00 0.00 0.00 56 1018.9
20260502022009 42 350 0.0 0.0 0.00 0.00 0.00 56 1018.9
20260502021524 43 350 0.0 0.0 0.00 0.00 0.00 58 1018.8
20260502021009 43 350 0.0 0.0 0.00 0.00 0.00 54 1018.8
20260502020511 44 350 0.0 0.0 0.00 0.00 0.00 54 1018.8
20260502020028 44 350 0.0 0.0 0.00 0.00 0.00 52 1018.7
20260502015509 45 350 0.0 0.0 0.00 0.00 0.00 51 1018.7
20260502015010 46 350 0.0 0.0 0.00 0.00 0.00 50 1018.7
20260502014547 46 350 0.0 0.0 0.00 0.00 0.00 49 1018.6
20260502014010 47 350 0.0 0.0 0.00 0.00 0.00 49 1018.5
20260502013506 48 350 0.0 0.0 0.00 0.00 0.00 48 1018.5
20260502013021 48 350 0.0 0.0 0.00 0.00 0.00 47 1018.5
20260502012509 49 350 0.0 0.0 0.00 0.00 0.00 47 1018.4
20260502012007 50 350 0.0 0.0 0.00 0.00 0.00 1018.4
20260502011523 50 350 0.0 0.0 0.00 0.00 0.00 46 1018.4
20260502011010 51 350 0.0 1.7 0.00 0.00 0.00 46 1018.4
20260502010511 51 350 0.0 3.5 0.00 0.00 0.00 42 1018.4
20260502010022 51 350 0.9 3.5 0.00 0.00 0.00 37 1018.4